Albuquerque, NM

4:52 PM MDT on September 19, 2017 (GMT -0600)
Albuquerque International Sunport

Weather History for KABQ - February, 2013

Change the Weather History Date:

Tuesday, February 26, 2013

  Actual Average Record
Temperature  
Mean Temperature 35 °F 44 °F  
Max Temperature 48 °F 56 °F 74 °F (1986)
Min Temperature 21 °F 33 °F 13 °F (1935)
Degree Days  
Heating Degree Days 30 21  
Month to date heating degree days 661 620  
Since 1 July heating degree days 3139 3262  
Cooling Degree Days 0 0  
Month to date cooling degree days 0 0  
Year to date cooling degree days 0 0  
Moisture  
Dew Point 5 °F    
Average Humidity 41    
Maximum Humidity 71    
Minimum Humidity 11    
Precipitation  
Precipitation 0.00 in 0.01 in 0.42 in (1948)
Month to date precipitation 0.24 0.44  
Year to date precipitation 0.35 0.82  
Snow  
Snow 0.00 in - - ()
Month to date snowfall 2.8  
Since 1 July snowfall 3.5  
Snow Depth 0.00 in    
Sea Level Pressure  
Sea Level Pressure 29.93 in    
Wind  
Wind Speed 13 mph (NW)    
Max Wind Speed 33 mph    
Max Gust Speed 44 mph    
Visibility 10 miles    
Events      
T = Trace of Precipitation, MM = Missing Value Source: NWS Daily Summary

Daily Weather History Graph

Daily Weather History Graph

Search for Another Location

Airport or City:

Trip Planner

Search our weather history database for the weather conditions in past years. The results will help you decide how hot, cold, wet, or windy it might be!

Date:

Astronomy

Feb. 26, 2013 Rise Set
Actual Time 6:39 AM MST 5:59 PM MST
Civil Twilight 6:13 AM MST 6:25 PM MST
Nautical Twilight 5:44 AM MST 6:54 PM MST
Astronomical Twilight 5:15 AM MST 7:23 PM MST
Moon 7:14 PM MST (2/26) 6:47 AM MST (2/26)
Length of Visible Light 12h 11m
Length of Day
11h 20m
Full, 99% of the Moon is Illuminated
Feb 26
Full
Mar 4
Last Quarter
Mar 11
New
Mar 19
First Quarter
Mar 27
Full

Hourly Weather History & Observations

Time (MST) Temp. Windchill Dew Point Humidity Pressure Visibility Wind Dir Wind Speed Gust Speed Precip Events Conditions
12:52 AM 27.0 °F 21.6 °F 10.9 °F 51% 29.94 in 10.0 mi ESE 4.6 mph - N/A   Partly Cloudy
1:52 AM 27.0 °F 19.5 °F 12.9 °F 56% 29.92 in 10.0 mi SE 6.9 mph - N/A   Partly Cloudy
2:52 AM 27.0 °F 20.5 °F 14.0 °F 58% 29.91 in 10.0 mi SE 5.8 mph - N/A   Clear
3:52 AM 28.9 °F 23.9 °F 14.0 °F 54% 29.89 in 10.0 mi SE 4.6 mph - N/A   Clear
4:52 AM 26.1 °F 21.9 °F 14.0 °F 60% 29.90 in 10.0 mi SE 3.5 mph - N/A   Clear
5:52 AM 28.0 °F 24.2 °F 14.0 °F 56% 29.90 in 10.0 mi SE 3.5 mph - N/A   Clear
6:52 AM 21.0 °F 12.4 °F 14.0 °F 74% 29.91 in 10.0 mi SE 6.9 mph - N/A   Clear
7:52 AM 28.9 °F 23.9 °F 16.0 °F 58% 29.90 in 10.0 mi ESE 4.6 mph - N/A   Clear
8:52 AM 34.0 °F 26.6 °F 12.0 °F 40% 29.89 in 10.0 mi South 9.2 mph - N/A   Clear
9:52 AM 37.9 °F 33.5 °F 10.9 °F 33% 29.88 in 10.0 mi SSW 5.8 mph - N/A   Clear
10:52 AM 44.1 °F 41.5 °F 10.0 °F 25% 29.84 in 10.0 mi West 4.6 mph - N/A   Partly Cloudy
11:52 AM 46.9 °F - 3.9 °F 17% 29.84 in 10.0 mi NW 13.8 mph 28.8 mph N/A   Partly Cloudy
12:52 PM 48.0 °F - 3.0 °F 16% 29.81 in 10.0 mi WNW 21.9 mph 33.4 mph N/A   Partly Cloudy
1:52 PM 46.9 °F - -0.9 °F 14% 29.82 in 10.0 mi NW 20.7 mph 40.3 mph N/A   Partly Cloudy
2:52 PM 45.0 °F 36.0 °F -4.0 °F 13% 29.86 in 10.0 mi NW 25.3 mph 40.3 mph N/A   Partly Cloudy
3:52 PM 44.1 °F 34.2 °F -5.1 °F 13% 29.87 in 10.0 mi NW 28.8 mph 36.8 mph N/A   Partly Cloudy
4:52 PM 42.1 °F 32.8 °F -5.1 °F 14% 29.92 in 10.0 mi NW 21.9 mph 40.3 mph N/A   Partly Cloudy
5:52 PM 39.0 °F 27.4 °F -11.0 °F 12% 29.94 in 10.0 mi NW 28.8 mph 38.0 mph N/A   Partly Cloudy
6:52 PM 37.0 °F 26.7 °F -4.0 °F 17% 30.02 in 10.0 mi NW 19.6 mph 34.5 mph N/A   Clear
7:52 PM 35.1 °F 25.5 °F -0.9 °F 22% 30.04 in 10.0 mi NW 15.0 mph 26.5 mph N/A   Clear
8:52 PM 34.0 °F 25.5 °F -0.0 °F 24% 30.06 in 10.0 mi NNW 11.5 mph - N/A   Clear
9:52 PM 33.8 °F 24.3 °F 1.4 °F 25% 30.07 in 10.0 mi NNW 13.8 mph 21.9 mph N/A   Clear
10:52 PM 32.0 °F 24.2 °F 3.0 °F 29% 30.07 in 10.0 mi North 9.2 mph - N/A   Clear
11:52 PM 30.9 °F 21.7 °F 3.9 °F 32% 30.08 in 10.0 mi NNW 11.5 mph - N/A   Clear